Fosston, MN

8:28 PM CDT on September 23, 2017 (GMT -0500)
Fosston Municipal

Weather History for KFSE - October, 2010

Change the Weather History Date:

Monday, October 18, 2010

  Actual Average Record
Temperature  
Mean Temperature 38 °F -  
Max Temperature 51 °F 51 °F 75 °F (1950)
Min Temperature 26 °F 30 °F 10 °F (1992)
Degree Days  
Heating Degree Days 26    
Moisture  
Dew Point 32 °F    
Average Humidity 79    
Maximum Humidity 100    
Minimum Humidity 54    
Precipitation  
Precipitation 0.00 in - - ()
Sea Level Pressure  
Sea Level Pressure 30.08 in    
Wind  
Wind Speed 5 mph (SW)    
Max Wind Speed 17 mph    
Max Gust Speed 22 mph    
Visibility 10 miles    
Events      
Averages and records for this station are not official NWS values.
T = Trace of Precipitation, MM = Missing Value Source: NWS Daily Summary

Daily Weather History Graph

Daily Weather History Graph

Search for Another Location

Airport or City:

Trip Planner

Search our weather history database for the weather conditions in past years. The results will help you decide how hot, cold, wet, or windy it might be!

Date:

Astronomy

Oct. 18, 2010 Rise Set
Actual Time 7:46 AM CDT 6:29 PM CDT
Civil Twilight 7:15 AM CDT 7:00 PM CDT
Nautical Twilight 6:39 AM CDT 7:36 PM CDT
Astronomical Twilight 6:03 AM CDT 8:11 PM CDT
Moon 4:28 PM CDT (10/18) 3:19 AM CDT (10/18)
Length of Visible Light 11h 45m
Length of Day
10h 43m
Waxing Gibbous, 83% of the Moon is Illuminated
Oct 18
Waxing Gibbous
Oct 22
Full
Oct 30
Last Quarter
Nov 5
New
Nov 13
First Quarter

Hourly Weather History & Observations

Time (CDT) Temp. Windchill Dew Point Humidity Pressure Visibility Wind Dir Wind Speed Gust Speed Precip Events Conditions
12:13 AM 35.6 °F - 26.6 °F 70% 30.13 in 10.0 mi Calm Calm - N/A   Scattered Clouds
12:33 AM 35.6 °F - 26.6 °F 70% 30.13 in 10.0 mi Calm Calm - N/A   Scattered Clouds
12:53 AM 35.6 °F 31.7 °F 26.6 °F 70% 30.13 in 10.0 mi West 4.6 mph - N/A   Clear
1:13 AM 33.8 °F - 26.6 °F 75% 30.13 in 10.0 mi Calm Calm - N/A   Clear
1:34 AM 33.8 °F - 26.6 °F 75% 30.12 in 10.0 mi Calm Calm - N/A   Mostly Cloudy
1:53 AM 30.2 °F - 21.2 °F 69% 30.12 in 10.0 mi Calm Calm - N/A   Mostly Cloudy
2:13 AM 30.2 °F - 24.8 °F 80% 30.12 in 10.0 mi Calm Calm - N/A   Scattered Clouds
2:33 AM 30.2 °F - 26.6 °F 86% 30.12 in 10.0 mi Calm Calm - N/A   Clear
2:53 AM 28.4 °F 24.6 °F 26.6 °F 93% 30.11 in 10.0 mi South 3.5 mph - N/A   Clear
3:13 AM 28.4 °F 22.2 °F 26.6 °F 93% 30.12 in 10.0 mi South 5.8 mph - N/A   Clear
3:33 AM 28.4 °F 23.3 °F 26.6 °F 93% 30.12 in 10.0 mi SSW 4.6 mph - N/A   Clear
3:53 AM 26.6 °F 20.0 °F 24.8 °F 93% 30.12 in 10.0 mi SSW 5.8 mph - N/A   Clear
4:13 AM 26.6 °F 21.2 °F 24.8 °F 93% 30.12 in 10.0 mi South 4.6 mph - N/A   Clear
4:33 AM 26.6 °F 20.0 °F 26.6 °F 100% 30.11 in 10.0 mi South 5.8 mph - N/A   Clear
4:53 AM 26.6 °F 21.2 °F 26.6 °F 100% 30.12 in 10.0 mi SSW 4.6 mph - N/A   Clear
5:13 AM 26.6 °F 20.0 °F 24.8 °F 93% 30.12 in 10.0 mi SSW 5.8 mph - N/A   Clear
5:33 AM 26.6 °F 20.0 °F 26.6 °F 100% 30.13 in 10.0 mi SSW 5.8 mph - N/A   Clear
5:53 AM 26.6 °F 21.2 °F 26.6 °F 100% 30.13 in 10.0 mi SSW 4.6 mph - N/A   Clear
6:13 AM 26.6 °F 20.0 °F 26.6 °F 100% 30.13 in 10.0 mi South 5.8 mph - N/A   Clear
6:33 AM 26.6 °F - 26.6 °F 100% 30.13 in 10.0 mi Calm Calm - N/A   Clear
6:53 AM 26.6 °F - 26.6 °F 100% 30.13 in 10.0 mi Calm Calm - N/A   Scattered Clouds
7:13 AM 26.6 °F - 26.6 °F 100% 30.13 in 10.0 mi Calm Calm - N/A   Scattered Clouds
7:33 AM 26.6 °F 21.2 °F 26.6 °F 100% 30.13 in 10.0 mi South 4.6 mph - N/A   Scattered Clouds
7:53 AM 26.6 °F 21.2 °F 24.8 °F 93% 30.12 in 10.0 mi South 4.6 mph - N/A   Clear
8:13 AM 26.6 °F 20.0 °F 26.6 °F 100% 30.12 in 10.0 mi South 5.8 mph - N/A   Clear
8:33 AM 28.4 °F - 26.6 °F 93% 30.12 in 10.0 mi Calm Calm - N/A   Scattered Clouds
8:53 AM 33.8 °F 28.6 °F 32.0 °F 93% 30.13 in 10.0 mi SW 5.8 mph - N/A   Mostly Cloudy
9:13 AM 33.8 °F 27.7 °F 33.8 °F 100% 30.12 in 10.0 mi SSW 6.9 mph - N/A   Overcast
9:33 AM 37.4 °F 31.4 °F 35.6 °F 93% 30.12 in 10.0 mi SW 8.1 mph - N/A   Overcast
9:53 AM 39.2 °F 34.2 °F 35.6 °F 87% 30.12 in 10.0 mi SW 6.9 mph - N/A   Overcast
10:13 AM 39.2 °F 32.0 °F 35.6 °F 87% 30.12 in 10.0 mi SW 11.5 mph - N/A   Overcast
10:53 AM 44.6 °F 38.1 °F 37.4 °F 76% 30.10 in 10.0 mi WSW 13.8 mph - N/A   Scattered Clouds
11:13 AM 44.6 °F 38.4 °F 37.4 °F 76% 30.10 in 10.0 mi WSW 12.7 mph - N/A   Mostly Cloudy
11:33 AM 44.6 °F 38.4 °F 37.4 °F 76% 30.09 in 10.0 mi WSW 12.7 mph 18.4 mph N/A   Mostly Cloudy
11:53 AM 46.4 °F 39.5 °F 37.4 °F 71% 30.09 in 10.0 mi WSW 17.3 mph 21.9 mph N/A   Mostly Cloudy
12:13 PM 46.4 °F 39.8 °F 37.4 °F 71% 30.09 in 10.0 mi WSW 16.1 mph 19.6 mph N/A   Mostly Cloudy
12:33 PM 48.2 °F - 37.4 °F 66% 30.08 in 10.0 mi West 13.8 mph 19.6 mph N/A   Mostly Cloudy
12:53 PM 46.4 °F 40.7 °F 37.4 °F 71% 30.08 in 10.0 mi WSW 12.7 mph - N/A   Mostly Cloudy
1:13 PM 48.2 °F - 37.4 °F 66% 30.07 in 10.0 mi SW 12.7 mph - N/A   Mostly Cloudy
1:33 PM 50.0 °F - 37.4 °F 62% 30.06 in 10.0 mi WSW 13.8 mph - N/A   Mostly Cloudy
1:53 PM 50.0 °F - 37.4 °F 62% 30.05 in 10.0 mi WSW 12.7 mph 17.3 mph N/A   Mostly Cloudy
2:13 PM 50.0 °F - 35.6 °F 58% 30.04 in 10.0 mi WSW 15.0 mph 20.7 mph N/A   Mostly Cloudy
2:33 PM 51.8 °F - 35.6 °F 54% 30.03 in 10.0 mi SW 15.0 mph 19.6 mph N/A   Scattered Clouds
2:53 PM 51.8 °F - 35.6 °F 54% 30.02 in 10.0 mi WSW 13.8 mph 17.3 mph N/A   Scattered Clouds
3:13 PM 48.2 °F - 35.6 °F 62% 30.02 in 10.0 mi WSW 10.4 mph 18.4 mph N/A   Scattered Clouds
3:33 PM 50.0 °F - 35.6 °F 58% 30.01 in 10.0 mi WSW 8.1 mph 12.7 mph N/A   Scattered Clouds
3:53 PM 48.2 °F - 35.6 °F 62% 30.00 in 10.0 mi WSW 10.4 mph 17.3 mph N/A   Scattered Clouds
4:13 PM 51.8 °F - 37.4 °F 58% 30.00 in 10.0 mi WSW 15.0 mph - N/A   Scattered Clouds
4:33 PM 50.0 °F - 37.4 °F 62% 29.99 in 10.0 mi WSW 12.7 mph - N/A   Clear
4:53 PM 48.2 °F - 37.4 °F 66% 29.98 in 10.0 mi SW 11.5 mph - N/A   Mostly Cloudy
5:13 PM 48.2 °F - 37.4 °F 66% 29.98 in 10.0 mi SW 10.4 mph 17.3 mph N/A   Scattered Clouds
5:33 PM 50.0 °F - 37.4 °F 62% 29.97 in 10.0 mi SW 13.8 mph - N/A   Mostly Cloudy
5:53 PM 48.2 °F - 35.6 °F 62% 29.97 in 10.0 mi SW 15.0 mph 19.6 mph N/A   Mostly Cloudy
6:13 PM 48.2 °F - 35.6 °F 62% 29.97 in 10.0 mi SW 10.4 mph - N/A   Scattered Clouds
6:33 PM 46.4 °F 41.1 °F 33.8 °F 62% 29.96 in 10.0 mi SW 11.5 mph - N/A   Scattered Clouds
6:53 PM 44.6 °F 39.7 °F 33.8 °F 66% 29.96 in 10.0 mi SW 9.2 mph - N/A   Scattered Clouds
7:13 PM 42.8 °F 38.0 °F 33.8 °F 70% 29.96 in 10.0 mi SW 8.1 mph - N/A   Clear
7:33 PM 42.8 °F 38.0 °F 32.0 °F 66% 29.96 in 10.0 mi SW 8.1 mph - N/A   Clear
7:53 PM 41.0 °F 35.8 °F 32.0 °F 70% 29.95 in 10.0 mi SSW 8.1 mph - N/A   Clear
8:13 PM 41.0 °F 34.7 °F 33.8 °F 76% 29.95 in 10.0 mi SW 10.4 mph - N/A   Clear
8:33 PM 41.0 °F 35.8 °F 33.8 °F 76% 29.95 in 10.0 mi SW 8.1 mph - N/A   Clear
8:53 PM 39.2 °F 33.0 °F 33.8 °F 81% 29.95 in 10.0 mi SW 9.2 mph - N/A   Clear
9:13 PM 39.2 °F 33.6 °F 30.2 °F 70% 29.95 in 10.0 mi SW 8.1 mph - N/A   Clear
9:33 PM 39.2 °F 33.6 °F 30.2 °F 70% 29.95 in 10.0 mi SW 8.1 mph - N/A   Clear
9:53 PM 39.2 °F 32.5 °F 32.0 °F 75% 29.95 in 10.0 mi SW 10.4 mph - N/A   Clear
10:13 PM 39.2 °F 33.0 °F 32.0 °F 75% 29.95 in 10.0 mi SW 9.2 mph - N/A   Clear
10:33 PM 37.4 °F 31.4 °F 33.8 °F 87% 29.95 in 10.0 mi SW 8.1 mph - N/A   Clear
10:53 PM 37.4 °F 31.4 °F 33.8 °F 87% 29.95 in 10.0 mi WSW 8.1 mph - N/A   Clear
11:13 PM 37.4 °F 30.8 °F 33.8 °F 87% 29.94 in 10.0 mi SW 9.2 mph - N/A   Clear
11:33 PM 37.4 °F 32.8 °F 33.8 °F 87% 29.94 in 10.0 mi SW 5.8 mph - N/A   Clear
11:53 PM 37.4 °F - 33.8 °F 87% 29.94 in 10.0 mi Calm Calm - N/A   Clear